Location: Mauries
(43.6188°N, 0.3322°W)
Time: 04:43:58
(UTC+00:00)

Okean 3 - Pass Details

Date: 14 January 2026
Orbit: 541 x 564 km, 82.5° (Epoch: 14 February)

Event Time Altitude Azimuth Distance (km) Brightness Sun altitude
Exits shadow 05:36:08 - 359° (N) 1,888 5.9 -20.5°
Reaches altitude 10° 05:36:18 10° 360° (N) 1,821 5.8 -20.5°
Maximum altitude 05:40:15 58° 80° (E) 640 3.9 -19.8°
Drops below altitude 10° 05:44:09 10° 159° (SSE) 1,800 6.3 -19.1°
Sets 05:46:19 0° 164° (SSE) 2,687 7.2 -18.7°
